When you browse on this site, cookies collect data to enhance your experience and personalize the content and advertising you see.
Visit our Privacy Policy to learn more. By continuing to use the site, you agree to this use of cookies and data.
  • In Hungary
  • List of Countries
  • For 7 days
  • Water Temperature
  • Weather Map
  • News
  • Weather Widgets
  • user-avatar
    Login

    Hourly Weather Godziszewo

    Today, 10 December, Tuesday

    Time Temperature Precipitation Wind Pressure Humidity
    00:00 +5°C° 0.2 mm 5 mps 749 mmHg 83%
    01:00 +5°C° 0.2 mm 5 mps 750 mmHg 82%
    02:00 +3°C° 0 mm 5 mps 751 mmHg 80%
    03:00 +3°C° 0 mm 5 mps 752 mmHg 79%
    04:00 +2°C° 0 mm 5 mps 753 mmHg 77%
    05:00 +2°C° 0 mm 5 mps 754 mmHg 77%
    06:00 +1°C° 0 mm 5 mps 755 mmHg 77%
    07:00 +1°C° 0 mm 5 mps 756 mmHg 77%
    08:00 +1°C° 0 mm 6 mps 757 mmHg 73%
    09:00 +1°C° 0 mm 6 mps 757 mmHg 69%
    10:00 +2°C° 0 mm 6 mps 758 mmHg 65%
    11:00 +2°C° 0 mm 6 mps 759 mmHg 60%
    12:00 +2°C° 0 mm 5 mps 760 mmHg 54%
    13:00 +3°C° 0 mm 5 mps 760 mmHg 49%
    14:00 +3°C° 0 mm 4 mps 760 mmHg 54%
    15:00 +2°C° 0 mm 3 mps 761 mmHg 60%
    16:00 +1°C° 0 mm 3 mps 761 mmHg 65%
    17:00 +2°C° 0 mm 2 mps 761 mmHg 72%
    18:00 +1°C° 0 mm 2 mps 762 mmHg 79%
    19:00 +1°C° 0 mm 2 mps 762 mmHg 87%
    20:00 +1°C° 0 mm 2 mps 762 mmHg 89%
    21:00 -1°C° 0 mm 2 mps 762 mmHg 91%
    22:00 -1°C° 0 mm 2 mps 761 mmHg 93%
    23:00 -1°C° 0 mm 2 mps 761 mmHg 93%

    Tomorrow, 11 December, Wednesday

    Time Temperature Precipitation Wind Pressure Humidity
    00:00 -1°C° 0 mm 2 mps 761 mmHg 93%
    01:00 -1°C° 0 mm 2 mps 760 mmHg 93%
    02:00 -1°C° 0 mm 2 mps 760 mmHg 91%
    03:00 -1°C° 0 mm 3 mps 759 mmHg 90%
    04:00 -1°C° 0 mm 3 mps 758 mmHg 89%
    05:00 -1°C° 0 mm 3 mps 757 mmHg 85%
    06:00 -2°C° 0 mm 4 mps 757 mmHg 82%
    07:00 -2°C° 0 mm 4 mps 757 mmHg 78%
    08:00 -1°C° 0 mm 4 mps 756 mmHg 75%
    09:00 -1°C° 0 mm 5 mps 756 mmHg 71%
    10:00 -1°C° 0 mm 5 mps 755 mmHg 67%
    11:00 0°C° 0 mm 4 mps 755 mmHg 65%
    12:00 0°C° 0 mm 4 mps 754 mmHg 62%
    13:00 +1°C° 0 mm 4 mps 753 mmHg 60%
    14:00 +1°C° 0 mm 3 mps 753 mmHg 63%
    15:00 +1°C° 0 mm 3 mps 752 mmHg 67%
    16:00 0°C° 0 mm 3 mps 751 mmHg 70%
    17:00 0°C° 0 mm 3 mps 751 mmHg 69%
    18:00 0°C° 0 mm 3 mps 751 mmHg 68%
    19:00 0°C° 0 mm 3 mps 751 mmHg 67%
    20:00 0°C° 0.1 mm 3 mps 751 mmHg 67%
    21:00 +1°C° 0.1 mm 2 mps 750 mmHg 68%
    22:00 +1°C° 0.1 mm 2 mps 750 mmHg 68%
    23:00 +1°C° 0.2 mm 2 mps 750 mmHg 72%

    Day after tomorrow, 12 December, Thursday

    Time Temperature Precipitation Wind Pressure Humidity
    00:00 0°C° 0.2 mm 3 mps 750 mmHg 76%
    01:00 0°C° 0.2 mm 3 mps 749 mmHg 79%
    02:00 0°C° 0.3 mm 3 mps 749 mmHg 81%
    03:00 0°C° 0.3 mm 3 mps 748 mmHg 84%
    04:00 0°C° 0.3 mm 3 mps 747 mmHg 86%
    05:00 0°C° 0.1 mm 3 mps 747 mmHg 86%
    06:00 0°C° 0.1 mm 3 mps 747 mmHg 86%
    07:00 0°C° 0.1 mm 3 mps 748 mmHg 86%
    08:00 +1°C° 0 mm 3 mps 748 mmHg 87%
    09:00 +1°C° 0 mm 3 mps 748 mmHg 88%
    10:00 +1°C° 0 mm 3 mps 748 mmHg 89%
    11:00 +2°C° 0 mm 3 mps 748 mmHg 89%
    12:00 +2°C° 0 mm 3 mps 748 mmHg 89%
    13:00 +3°C° 0 mm 3 mps 748 mmHg 89%
    14:00 +3°C° 0 mm 3 mps 747 mmHg 90%
    15:00 +3°C° 0 mm 3 mps 747 mmHg 91%
    16:00 +3°C° 0 mm 2 mps 747 mmHg 92%
    17:00 +3°C° 0.1 mm 2 mps 747 mmHg 92%
    18:00 +3°C° 0.1 mm 2 mps 747 mmHg 93%
    19:00 +3°C° 0.1 mm 2 mps 747 mmHg 93%
    20:00 +2°C° 0 mm 2 mps 746 mmHg 94%
    21:00 +2°C° 0 mm 2 mps 746 mmHg 94%
    22:00 0°C° 0 mm 3 mps 745 mmHg 94%
    23:00 0°C° 0 mm 3 mps 745 mmHg 94%

    13 December, Friday

    Time Temperature Precipitation Wind Pressure Humidity
    00:00 0°C° 0 mm 3 mps 744 mmHg 93%
    01:00 0°C° 0 mm 3 mps 743 mmHg 93%
    02:00 -1°C° 0 mm 4 mps 742 mmHg 92%
    03:00 -2°C° 0 mm 4 mps 741 mmHg 91%
    04:00 -2°C° 0 mm 5 mps 740 mmHg 90%
    05:00 -2°C° 0 mm 5 mps 739 mmHg 87%
    06:00 -3°C° 0 mm 6 mps 738 mmHg 84%
    07:00 -3°C° 0 mm 6 mps 737 mmHg 81%
    08:00 -2°C° 0 mm 6 mps 736 mmHg 77%
    09:00 -2°C° 0 mm 6 mps 736 mmHg 73%
    10:00 -1°C° 0 mm 6 mps 735 mmHg 69%
    11:00 -1°C° 0.1 mm 6 mps 735 mmHg 71%
    12:00 -1°C° 0.1 mm 6 mps 734 mmHg 72%
    13:00 +1°C° 0.1 mm 6 mps 734 mmHg 74%
    14:00 -1°C° 0.1 mm 6 mps 734 mmHg 76%
    15:00 0°C° 0.1 mm 5 mps 734 mmHg 78%
    16:00 0°C° 0.1 mm 4 mps 734 mmHg 81%
    17:00 0°C° 0 mm 4 mps 734 mmHg 80%
    18:00 0°C° 0 mm 4 mps 734 mmHg 79%
    19:00 -1°C° 0 mm 4 mps 734 mmHg 78%
    20:00 -1°C° 0 mm 4 mps 734 mmHg 79%
    21:00 -1°C° 0 mm 4 mps 734 mmHg 81%
    22:00 0°C° 0 mm 4 mps 734 mmHg 82%
    23:00 0°C° 0 mm 5 mps 734 mmHg 80%

    14 December, Saturday

    Time Temperature Precipitation Wind Pressure Humidity
    00:00 0°C° 0 mm 5 mps 733 mmHg 78%
    01:00 +1°C° 0 mm 6 mps 733 mmHg 77%
    02:00 +1°C° 0.1 mm 6 mps 733 mmHg 79%
    03:00 +2°C° 0.1 mm 6 mps 733 mmHg 81%
    04:00 +2°C° 0.1 mm 6 mps 734 mmHg 83%
    05:00 +2°C° 0 mm 6 mps 734 mmHg 82%
    06:00 +2°C° 0 mm 6 mps 734 mmHg 80%
    07:00 +2°C° 0 mm 5 mps 734 mmHg 79%
    08:00 +2°C° 0 mm 5 mps 735 mmHg 78%
    09:00 +2°C° 0 mm 6 mps 735 mmHg 78%
    10:00 +2°C° 0 mm 6 mps 736 mmHg 77%
    11:00 +3°C° 0 mm 5 mps 735 mmHg 73%
    12:00 +5°C° 0 mm 5 mps 735 mmHg 69%
    13:00 +5°C° 0 mm 5 mps 735 mmHg 64%
    14:00 +3°C° 0.5 mm 5 mps 735 mmHg 74%
    15:00 +2°C° 0.5 mm 5 mps 735 mmHg 84%
    16:00 +1°C° 0.5 mm 5 mps 735 mmHg 94%
    17:00 +2°C° 0.8 mm 5 mps 736 mmHg 89%
    18:00 +2°C° 0.8 mm 6 mps 737 mmHg 84%
    19:00 +2°C° 0.8 mm 6 mps 738 mmHg 79%
    20:00 +2°C° 0 mm 7 mps 738 mmHg 76%
    21:00 +2°C° 0 mm 7 mps 739 mmHg 74%
    22:00 +2°C° 0 mm 7 mps 740 mmHg 71%
    23:00 +2°C° 0 mm 7 mps 741 mmHg 71%

    15 December, Sunday

    Time Temperature Precipitation Wind Pressure Humidity
    00:00 +2°C° 0 mm 7 mps 742 mmHg 72%
    01:00 +2°C° 0 mm 7 mps 742 mmHg 72%
    02:00 +2°C° 0 mm 7 mps 743 mmHg 74%
    03:00 +2°C° 0 mm 7 mps 744 mmHg 75%
    04:00 +2°C° 0 mm 7 mps 745 mmHg 76%
    05:00 +2°C° 0 mm 7 mps 746 mmHg 74%
    06:00 0°C° 0 mm 7 mps 747 mmHg 71%
    07:00 0°C° 0 mm 7 mps 747 mmHg 68%
    08:00 +1°C° 0 mm 6 mps 748 mmHg 67%
    09:00 +1°C° 0 mm 6 mps 749 mmHg 66%
    10:00 +1°C° 0 mm 6 mps 750 mmHg 64%
    11:00 +2°C° 0 mm 6 mps 750 mmHg 64%
    12:00 +3°C° 0 mm 5 mps 750 mmHg 63%
    13:00 +3°C° 0 mm 5 mps 750 mmHg 63%
    14:00 +3°C° 0.1 mm 5 mps 749 mmHg 68%
    15:00 +3°C° 0.1 mm 5 mps 749 mmHg 73%
    16:00 +3°C° 0.1 mm 6 mps 749 mmHg 78%
    17:00 +4°C° 0.1 mm 6 mps 749 mmHg 80%
    18:00 +4°C° 0.1 mm 6 mps 749 mmHg 82%
    19:00 +5°C° 0.1 mm 6 mps 749 mmHg 85%
    20:00 +6°C° 0.1 mm 5 mps 749 mmHg 86%
    21:00 +7°C° 0.1 mm 5 mps 750 mmHg 87%
    22:00 +7°C° 0.1 mm 4 mps 750 mmHg 89%
    23:00 +7°C° 0 mm 4 mps 750 mmHg 89%
    Show more